Starlink 4278

operational
NORAD ID: 53182 Int'l Des: 2022-083 Owner: SPXS Country: US Constellation: starlink
LEOCIRCULAR

About Starlink 4278

Description loading...

Live Position

Loading 3D Globe...

Upcoming Passes

Altitude History

Altitude vs Time

uPlot chart will show altitude changes over time

Two-Line Element Set

1 53182U 22083BC 26061.03635470 .00001658 00000-0 12219-3 0 9995
2 53182 53.2170 173.4686 0001341 91.1615 268.9531 15.08846357200548
Epoch: Mar 2, 2026 • Age: 37 hours

Current Status

Altitude 558.3 km
Velocity 7.58 km/s
Sub-Earth Point -51.25°S, 58.62°E
Launch Date Jul 17, 2022
Age 3.6 years
Type internet

Technical Details

Classification Payload
Mass 297.00 kg
Dry Mass 275.00 kg
Total Mass 297.00 kg
Length 0.20 m
Diameter 2.80 m
Span 9.00 m
Shape Box + pan
Manufacturer SPXS
Bus Type Starlink
Phase Status In Orbit
Owner/State SPXS/US

Large Constellations

Loading constellations...